Weather History for Lone Rock, WI

Change the Weather History Date:

Monday, October 13, 2014

  Actual Average Record
Temperature  
Mean Temperature 58 °F -  
Max Temperature 62 °F 59 °F 78 °F (1996)
Min Temperature 53 °F 37 °F 28 °F (2002)
Degree Days  
Heating Degree Days 8    
Growing Degree Days 8 (Base 50)    
Moisture  
Dew Point 52 °F    
Average Humidity 81    
Maximum Humidity 87    
Minimum Humidity 72    
Precipitation  
Precipitation 1.06 in - - ()
Sea Level Pressure  
Sea Level Pressure 29.73 in    
Wind  
Wind Speed 5 mph (ENE)    
Max Wind Speed 20 mph    
Max Gust Speed 30 mph    
Visibility 4 miles    
Events Rain    
Averages and records for this station are not official NWS values.
T = Trace of Precipitation, MM = Missing Value Source: NWS Daily Summary

Daily Weather History Graph

Daily Weather History Graph

Search for Another Location

Airport:

Trip Planner

Search our weather history database for the weather conditions in past years. The results will help you decide how hot, cold, wet, or windy it might be!

Date:

Astronomy

Oct. 13, 2014 Rise Set
Actual Time 7:12 AM CDT 6:21 PM CDT
Civil Twilight 6:43 AM CDT 6:49 PM CDT
Nautical Twilight 6:10 AM CDT 7:22 PM CDT
Astronomical Twilight 5:37 AM CDT 7:55 PM CDT
Moon 10:26 PM CDT (10/13) 12:31 PM CDT (10/13)
Length of Visible Light 12h 06m
Length of Day
11h 08m
Waning Gibbous, 70% of the Moon is Illuminated
Oct 13
Waning Gibbous
Oct 15
Last Quarter
Oct 23
New
Oct 30
First Quarter
Nov 6
Full

Hourly Weather History & Observations

Time (CDT) Temp. Dew Point Humidity Pressure Visibility Wind Dir Wind Speed Gust Speed Precip Events Conditions
12:29 AM 54.0 °F 48.9 °F 83% 29.84 in 5.0 mi ESE 4.6 mph - N/A   Haze
12:56 AM 54.0 °F 48.9 °F 83% 29.83 in 2.0 mi East 4.6 mph - N/A   Haze
1:03 AM 54.0 °F 48.9 °F 83% 29.84 in 1.8 mi East 4.6 mph - N/A   Haze
1:34 AM 54.0 °F 48.9 °F 83% 29.84 in 2.0 mi East 4.6 mph - N/A   Haze
1:51 AM 53.6 °F 48.2 °F 82% 29.84 in 3.0 mi East 3.5 mph - N/A   Haze
1:56 AM 54.0 °F 50.0 °F 86% 29.83 in 3.0 mi Calm Calm - N/A   Overcast
2:13 AM 54.0 °F 50.0 °F 86% 29.84 in 2.5 mi East 3.5 mph - N/A   Overcast
2:43 AM 54.0 °F 50.0 °F 86% 29.84 in 2.0 mi ESE 3.5 mph - N/A   Overcast
2:56 AM 54.0 °F 50.0 °F 86% 29.82 in 2.0 mi East 3.5 mph - N/A   Overcast
3:34 AM 54.0 °F 50.0 °F 86% 29.83 in 2.0 mi ESE 3.5 mph - N/A   Overcast
3:56 AM 55.0 °F 50.0 °F 83% 29.81 in 2.0 mi Calm Calm - N/A   Haze
4:07 AM 55.0 °F 50.0 °F 83% 29.81 in 1.8 mi Calm Calm - N/A   Haze
4:14 AM 55.0 °F 50.0 °F 83% 29.81 in 2.0 mi Calm Calm - N/A   Haze
4:56 AM 55.0 °F 50.0 °F 83% 29.81 in 1.5 mi Calm Calm - N/A   Haze
5:29 AM 55.0 °F 51.1 °F 86% 29.83 in 0.8 mi Calm Calm - N/A   Mist
5:56 AM 55.0 °F 50.0 °F 83% 29.80 in 0.8 mi ENE 4.6 mph - N/A   Haze
6:15 AM 55.0 °F 51.1 °F 86% 29.82 in 1.2 mi ESE 3.5 mph - N/A   Overcast
6:56 AM 55.0 °F 51.1 °F 86% 29.81 in 1.8 mi Calm Calm - N/A   Overcast
7:56 AM 55.9 °F 51.1 °F 84% 29.84 in 2.0 mi ESE 3.5 mph - N/A   Haze
8:20 AM 55.9 °F 51.1 °F 84% 29.85 in 1.8 mi East 4.6 mph - 0.00 in Rain Light Rain
8:31 AM 55.9 °F 52.0 °F 87% 29.84 in 2.0 mi East 5.8 mph - 0.00 in   Overcast
8:56 AM 57.0 °F 52.0 °F 83% 29.83 in 3.0 mi ESE 5.8 mph - 0.00 in   Haze
9:27 AM 57.9 °F 52.0 °F 81% 29.84 in 5.0 mi ESE 5.8 mph - N/A   Haze
9:56 AM 59.0 °F 53.1 °F 81% 29.82 in 6.0 mi East 8.1 mph - N/A   Haze
10:23 AM 60.1 °F 53.1 °F 78% 29.83 in 8.0 mi East 6.9 mph - N/A   Overcast
10:42 AM 60.1 °F 52.0 °F 75% 29.83 in 9.0 mi East 5.8 mph - N/A   Overcast
10:56 AM 60.1 °F 52.0 °F 75% 29.82 in 10.0 mi SE 5.8 mph - N/A   Overcast
11:56 AM 61.0 °F 53.1 °F 75% 29.80 in 10.0 mi East 6.9 mph - N/A   Overcast
12:56 PM 62.1 °F 53.1 °F 72% 29.77 in 10.0 mi East 9.2 mph - N/A   Overcast
1:56 PM 62.1 °F 54.0 °F 75% 29.75 in 10.0 mi Calm Calm - 0.01 in   Overcast
2:25 PM 61.0 °F 54.0 °F 78% 29.74 in 4.0 mi NNE 6.9 mph - 0.01 in Rain Light Rain
2:59 PM 61.0 °F 54.0 °F 78% 29.72 in 4.0 mi NE 6.9 mph - 0.00 in Rain Rain
3:56 PM 60.1 °F 54.0 °F 80% 29.67 in 1.8 mi NE 10.4 mph - 0.13 in Rain Heavy Rain
4:05 PM 60.1 °F 54.0 °F 80% 29.67 in 2.5 mi NE 8.1 mph - 0.03 in Rain Rain
4:17 PM 61.0 °F 54.0 °F 78% 29.65 in 3.0 mi NE 12.7 mph - 0.04 in Rain Light Rain
4:56 PM 61.0 °F 54.0 °F 78% 29.62 in 4.0 mi ENE 10.4 mph - 0.09 in Rain Light Rain
5:09 PM 61.0 °F 54.0 °F 78% 29.62 in 2.5 mi ENE 11.5 mph - 0.04 in Rain Rain
5:30 PM 60.1 °F 54.0 °F 80% 29.61 in 1.8 mi NE 10.4 mph - 0.15 in Rain Heavy Rain
5:56 PM 60.1 °F 54.0 °F 80% 29.60 in 1.8 mi NE 6.9 mph - 0.31 in Rain Heavy Rain
6:10 PM 60.1 °F 54.0 °F 80% 29.59 in 3.0 mi ENE 12.7 mph 23.0 mph 0.10 in Rain Heavy Rain
6:14 PM 60.1 °F 54.0 °F 80% 29.59 in 4.0 mi NE 11.5 mph 23.0 mph 0.10 in Rain Rain
6:52 PM 60.8 °F 53.6 °F 77% 29.60 in 4.0 mi NNE 8.1 mph - 0.17 in Rain Rain
6:56 PM 60.1 °F 54.0 °F 80% 29.58 in 4.0 mi NE 6.9 mph - 0.18 in Rain Heavy Rain
7:08 PM 60.1 °F 54.0 °F 80% 29.60 in 4.0 mi NE 6.9 mph - 0.04 in Rain Rain
7:44 PM 60.1 °F 54.0 °F 80% 29.59 in 2.5 mi NNW 4.6 mph - 0.14 in Rain Heavy Rain
7:56 PM 62.1 °F 54.0 °F 75% 29.57 in 2.0 mi North 6.9 mph - 0.20 in Rain Heavy Rain
8:11 PM 60.1 °F 54.0 °F 80% 29.56 in 4.0 mi Variable 6.9 mph - 0.03 in Rain Light Rain
8:56 PM 60.1 °F 54.0 °F 80% 29.55 in 5.0 mi NNE 12.7 mph - 0.06 in Rain Light Rain
9:56 PM 60.1 °F 53.1 °F 78% 29.51 in 8.0 mi NNE 15.0 mph 24.2 mph 0.02 in Rain Light Rain
10:56 PM 60.1 °F 53.1 °F 78% 29.49 in 10.0 mi NNE 19.6 mph 29.9 mph 0.04 in Rain Light Rain
11:56 PM 60.1 °F 53.1 °F 78% 29.47 in 10.0 mi NNE 17.3 mph 21.9 mph 0.02 in Rain Light Rain